• In Uzbekistan
  • List of Countries
  • For 7 days
  • Water Temperature
  • Satellite Maps
  • Weather Map
  • Weather Widgets
  • user-avatar
    Login

    Hourly Weather Vanadzor

    Today, 23 October, Tuesday

    Time Temperature Precipitation Wind Pressure Humidity
    00:00 +11°C° 0 mm 1 mps 637 mmHg 78%
    01:00 +10°C° 0 mm 1 mps 637 mmHg 78%
    02:00 +9°C° 0 mm 1 mps 637 mmHg 78%
    03:00 +9°C° 0 mm 2 mps 636 mmHg 80%
    04:00 +9°C° 0 mm 2 mps 636 mmHg 81%
    05:00 +8°C° 0 mm 2 mps 636 mmHg 82%
    06:00 +8°C° 0 mm 2 mps 636 mmHg 83%
    07:00 +9°C° 0 mm 2 mps 637 mmHg 77%
    08:00 +12°C° 0 mm 2 mps 637 mmHg 71%
    09:00 +12°C° 0 mm 3 mps 638 mmHg 65%
    10:00 +13°C° 0.1 mm 3 mps 638 mmHg 61%
    11:00 +14°C° 0.1 mm 3 mps 638 mmHg 56%
    12:00 +16°C° 0.1 mm 3 mps 638 mmHg 52%
    13:00 +16°C° 0.2 mm 3 mps 637 mmHg 51%
    14:00 +16°C° 0.2 mm 3 mps 637 mmHg 51%
    15:00 +14°C° 0 mm 3 mps 637 mmHg 53%
    16:00 +13°C° 0.1 mm 3 mps 636 mmHg 58%
    17:00 +13°C° 0.1 mm 2 mps 636 mmHg 64%
    18:00 +10°C° 0.1 mm 2 mps 636 mmHg 69%
    19:00 +10°C° 0 mm 2 mps 636 mmHg 70%
    20:00 +10°C° 0 mm 2 mps 636 mmHg 72%
    21:00 +9°C° 0 mm 2 mps 636 mmHg 74%
    22:00 +9°C° 0 mm 2 mps 636 mmHg 74%
    23:00 +9°C° 0 mm 2 mps 635 mmHg 75%

    Tomorrow, 24 October, Wednesday

    Time Temperature Precipitation Wind Pressure Humidity
    00:00 +8°C° 0 mm 2 mps 635 mmHg 76%
    01:00 +8°C° 0 mm 2 mps 635 mmHg 77%
    02:00 +8°C° 0 mm 2 mps 635 mmHg 77%
    03:00 +7°C° 0 mm 2 mps 635 mmHg 78%
    04:00 +7°C° 0 mm 2 mps 634 mmHg 78%
    05:00 +7°C° 0 mm 2 mps 634 mmHg 79%
    06:00 +7°C° 0 mm 2 mps 633 mmHg 79%
    07:00 +8°C° 0.1 mm 2 mps 634 mmHg 75%
    08:00 +9°C° 0.1 mm 2 mps 634 mmHg 70%
    09:00 +11°C° 0.1 mm 3 mps 634 mmHg 66%
    10:00 +11°C° 0.7 mm 3 mps 634 mmHg 66%
    11:00 +11°C° 0.7 mm 3 mps 634 mmHg 66%
    12:00 +12°C° 0.7 mm 3 mps 633 mmHg 66%
    13:00 +13°C° 0.2 mm 3 mps 633 mmHg 64%
    14:00 +13°C° 0.2 mm 4 mps 633 mmHg 61%
    15:00 +14°C° 0.2 mm 4 mps 632 mmHg 59%
    16:00 +13°C° 0.2 mm 4 mps 632 mmHg 63%
    17:00 +11°C° 0.2 mm 3 mps 631 mmHg 68%
    18:00 +10°C° 0.2 mm 3 mps 631 mmHg 72%
    19:00 +10°C° 0.2 mm 3 mps 631 mmHg 73%
    20:00 +10°C° 0.2 mm 3 mps 631 mmHg 75%
    21:00 +10°C° 0.2 mm 3 mps 631 mmHg 76%
    22:00 +9°C° 0.2 mm 3 mps 631 mmHg 78%
    23:00 +8°C° 0.2 mm 4 mps 630 mmHg 81%

    Day after tomorrow, 25 October, Thursday

    Time Temperature Precipitation Wind Pressure Humidity
    00:00 +8°C° 0.2 mm 4 mps 630 mmHg 83%
    01:00 +8°C° 0.1 mm 4 mps 630 mmHg 83%
    02:00 +8°C° 0.1 mm 4 mps 630 mmHg 84%
    03:00 +8°C° 0.1 mm 4 mps 629 mmHg 85%
    04:00 +8°C° 0.2 mm 4 mps 629 mmHg 85%
    05:00 +8°C° 0.2 mm 4 mps 629 mmHg 84%
    06:00 +8°C° 0.2 mm 4 mps 628 mmHg 84%
    07:00 +10°C° 0.2 mm 4 mps 629 mmHg 78%
    08:00 +10°C° 0.2 mm 5 mps 629 mmHg 72%
    09:00 +13°C° 0.2 mm 5 mps 629 mmHg 66%
    10:00 +14°C° 0.1 mm 6 mps 628 mmHg 61%
    11:00 +15°C° 0.1 mm 7 mps 628 mmHg 57%
    12:00 +16°C° 0.1 mm 8 mps 628 mmHg 53%
    13:00 +16°C° 0.4 mm 8 mps 627 mmHg 52%
    14:00 +15°C° 0.4 mm 8 mps 627 mmHg 52%
    15:00 +15°C° 0.4 mm 7 mps 627 mmHg 51%
    16:00 +14°C° 0.7 mm 6 mps 626 mmHg 57%
    17:00 +13°C° 0.7 mm 5 mps 626 mmHg 63%
    18:00 +12°C° 0.7 mm 4 mps 626 mmHg 69%
    19:00 +12°C° 1.2 mm 4 mps 626 mmHg 73%
    20:00 +11°C° 1.2 mm 4 mps 626 mmHg 77%
    21:00 +11°C° 1.2 mm 4 mps 626 mmHg 82%
    22:00 +10°C° 0.7 mm 4 mps 626 mmHg 83%
    23:00 +10°C° 0.7 mm 4 mps 626 mmHg 85%

    26 October, Friday

    Time Temperature Precipitation Wind Pressure Humidity
    00:00 +8°C° 0.7 mm 4 mps 626 mmHg 87%
    01:00 +8°C° 2.2 mm 4 mps 626 mmHg 88%
    02:00 +7°C° 2.2 mm 4 mps 626 mmHg 90%
    03:00 +8°C° 2.2 mm 3 mps 626 mmHg 91%
    04:00 +7°C° 1.9 mm 3 mps 626 mmHg 91%
    05:00 +7°C° 1.9 mm 3 mps 627 mmHg 91%
    06:00 +6°C° 1.9 mm 2 mps 627 mmHg 91%
    07:00 +6°C° 1.1 mm 2 mps 627 mmHg 90%
    08:00 +6°C° 1.1 mm 2 mps 628 mmHg 89%
    09:00 +5°C° 1.1 mm 2 mps 628 mmHg 88%
    10:00 +5°C° 1.4 mm 2 mps 628 mmHg 87%
    11:00 +5°C° 1.4 mm 2 mps 629 mmHg 86%
    12:00 +5°C° 1.4 mm 2 mps 629 mmHg 85%
    13:00 +5°C° 0.3 mm 2 mps 629 mmHg 82%
    14:00 +6°C° 0.3 mm 2 mps 630 mmHg 79%
    15:00 +6°C° 0.3 mm 2 mps 630 mmHg 76%
    16:00 +6°C° 0.5 mm 2 mps 631 mmHg 79%
    17:00 +6°C° 0.5 mm 1 mps 631 mmHg 82%
    18:00 +5°C° 0.5 mm 1 mps 632 mmHg 85%
    19:00 +5°C° 0.1 mm 1 mps 633 mmHg 84%
    20:00 +3°C° 0.1 mm 2 mps 633 mmHg 83%
    21:00 +3°C° 0.1 mm 2 mps 634 mmHg 82%
    22:00 +2°C° 0 mm 2 mps 634 mmHg 81%
    23:00 +2°C° 0 mm 2 mps 635 mmHg 80%

    27 October, Saturday

    Time Temperature Precipitation Wind Pressure Humidity
    00:00 0°C° 0 mm 3 mps 635 mmHg 78%
    01:00 0°C° 0 mm 3 mps 636 mmHg 77%
    02:00 0°C° 0 mm 3 mps 636 mmHg 75%
    03:00 0°C° 0 mm 3 mps 636 mmHg 73%
    04:00 0°C° 0 mm 3 mps 637 mmHg 73%
    05:00 +1°C° 0 mm 2 mps 637 mmHg 73%
    06:00 +1°C° 0 mm 2 mps 637 mmHg 73%
    07:00 +2°C° 0 mm 2 mps 638 mmHg 71%
    08:00 +4°C° 0 mm 2 mps 639 mmHg 69%
    09:00 +5°C° 0 mm 2 mps 639 mmHg 68%
    10:00 +6°C° 0 mm 2 mps 639 mmHg 66%
    11:00 +8°C° 0 mm 2 mps 639 mmHg 65%
    12:00 +9°C° 0 mm 2 mps 639 mmHg 63%
    13:00 +9°C° 0 mm 2 mps 639 mmHg 61%
    14:00 +9°C° 0 mm 2 mps 639 mmHg 59%
    15:00 +10°C° 0 mm 1 mps 639 mmHg 57%
    16:00 +9°C° 0 mm 1 mps 639 mmHg 60%
    17:00 +7°C° 0 mm 1 mps 639 mmHg 63%
    18:00 +5°C° 0 mm 1 mps 639 mmHg 66%
    19:00 +4°C° 0 mm 0 mps 639 mmHg 66%
    20:00 +4°C° 0 mm 0 mps 640 mmHg 66%
    21:00 +3°C° 0 mm 0 mps 640 mmHg 66%
    22:00 +3°C° 0 mm 0 mps 640 mmHg 66%
    23:00 +3°C° 0 mm 0 mps 640 mmHg 65%

    28 October, Sunday

    Time Temperature Precipitation Wind Pressure Humidity
    00:00 +3°C° 0 mm 0 mps 640 mmHg 65%
    01:00 +4°C° 0 mm 1 mps 640 mmHg 63%
    02:00 +4°C° 0 mm 1 mps 640 mmHg 62%
    03:00 +3°C° 0 mm 1 mps 640 mmHg 60%
    04:00 +3°C° 0 mm 1 mps 640 mmHg 58%
    05:00 +3°C° 0 mm 1 mps 640 mmHg 56%
    06:00 +3°C° 0 mm 1 mps 640 mmHg 54%
    07:00 +5°C° 0 mm 1 mps 641 mmHg 52%
    08:00 +7°C° 0 mm 1 mps 641 mmHg 51%
    09:00 +9°C° 0 mm 1 mps 642 mmHg 49%
    10:00 +10°C° 0 mm 1 mps 642 mmHg 49%
    11:00 +11°C° 0 mm 1 mps 642 mmHg 48%
    12:00 +13°C° 0 mm 1 mps 642 mmHg 48%
    13:00 +13°C° 0 mm 1 mps 642 mmHg 46%
    14:00 +13°C° 0 mm 1 mps 642 mmHg 45%
    15:00 +13°C° 0 mm 1 mps 642 mmHg 44%
    16:00 +11°C° 0 mm 1 mps 642 mmHg 46%
    17:00 +10°C° 0 mm 1 mps 641 mmHg 48%
    18:00 +8°C° 0 mm 1 mps 641 mmHg 50%
    19:00 +8°C° 0 mm 1 mps 641 mmHg 49%
    20:00 +7°C° 0 mm 1 mps 641 mmHg 49%
    21:00 +7°C° 0 mm 1 mps 642 mmHg 49%
    22:00 +7°C° 0 mm 1 mps 642 mmHg 48%
    23:00 +7°C° 0 mm 1 mps 642 mmHg 48%

    29 October, Monday

    Time Temperature Precipitation Wind Pressure Humidity
    00:00 +7°C° 0 mm 1 mps 642 mmHg 47%
    01:00 +7°C° 0 mm 1 mps 642 mmHg 47%
    02:00 +6°C° 0 mm 1 mps 641 mmHg 46%
    03:00 +6°C° 0 mm 1 mps 641 mmHg 45%
    04:00 +6°C° 0 mm 1 mps 641 mmHg 45%
    05:00 +6°C° 0 mm 1 mps 641 mmHg 44%
    06:00 +6°C° 0 mm 1 mps 641 mmHg 44%
    07:00 +8°C° 0 mm 1 mps 642 mmHg 43%
    08:00 +10°C° 0 mm 1 mps 643 mmHg 42%
    09:00 +11°C° 0 mm 1 mps 643 mmHg 41%
    10:00 +13°C° 0 mm 1 mps 644 mmHg 39%
    11:00 +14°C° 0 mm 1 mps 644 mmHg 37%
    12:00 +15°C° 0 mm 1 mps 644 mmHg 36%
    13:00 +15°C° 0 mm 1 mps 643 mmHg 36%
    14:00 +15°C° 0 mm 1 mps 643 mmHg 37%
    15:00 +15°C° 0 mm 1 mps 643 mmHg 37%
    16:00 +13°C° 0 mm 1 mps 642 mmHg 40%
    17:00 +11°C° 0 mm 1 mps 642 mmHg 44%
    18:00 +8°C° 0 mm 0 mps 641 mmHg 47%
    19:00 +8°C° 0 mm 0 mps 641 mmHg 46%
    20:00 +8°C° 0 mm 1 mps 641 mmHg 45%
    21:00 +8°C° 0 mm 1 mps 642 mmHg 45%
    22:00 +8°C° 0 mm 1 mps 641 mmHg 44%
    23:00 +8°C° 0 mm 1 mps 641 mmHg 42%
    Show more